Location: Catacaguana
(10.4120°N, 66.7591°W)
Time: 06:52:11
(UTC+00:00)

Atlas Centaur 2 - Pass Details

Date: 27 May 2022
Orbit: 459 x 1304 km, 30.4° (Epoch: 28 June)

Event Time Altitude Azimuth Distance (km) Brightness Sun altitude
Exits shadow 09:00:24 18° 224° (SW) 2,449 4.0 -15.2°
Maximum altitude 09:06:14 64° 147° (SSE) 1,349 3.2 -13.9°
Drops below altitude 10° 09:14:36 10° 68° (ENE) 3,304 6.8 -12.0°
Sets 09:17:38 0° 65° (ENE) 4,276 8.1 -11.3°
